Satellite-Ground Cal/Val Site Overpasses Predictions

Prediction of Satellite NPP Overpassing Cal/Val Site: Antarctic Dome C

Ground Cal/Val Site Location: Latitude: -75.10, Longitude: 123.35; Satellite-Ground Site NADIR distance within 100 km.

Table of predicted overpasses for the next 14.0 days since TLE Epoch: 7/5/2019
Interval Starting Time Ending Time Minimum Distance Time Minimum Distance (km)
1 07/06/2019 07:25:26 07/06/2019 07:25:53 07/06/2019 07:25:40 36.68
2 07/08/2019 15:07:55 07/08/2019 15:08:00 07/08/2019 15:07:57 98.04
3 07/09/2019 14:48:52 07/09/2019 14:49:21 07/09/2019 14:49:07 13.22
4 07/11/2019 07:31:43 07/11/2019 07:32:13 07/11/2019 07:31:58 0.71
5 07/14/2019 14:55:11 07/14/2019 14:55:39 07/14/2019 14:55:25 23.25
6 07/15/2019 14:36:29 07/15/2019 14:36:45 07/15/2019 14:36:37 83.79
7 07/16/2019 07:38:01 07/16/2019 07:38:29 07/16/2019 07:38:15 36.13
8 07/17/2019 07:19:16 07/17/2019 07:19:36 07/17/2019 07:19:26 73.80


NCC Satellite Cal/Val Overpasses Prediction Service
